#timestamp,LO_Frequency,Hit,StdDev 
1711173615.0,286047038.9,P
1711173615.9,286047038.9,Y
1711173635.8,286047012.9,P
1711173655.6,286047020.4,N
1711173675.4,286047022.9,N
1711173695.3,286047026.2,Y
1711173715.1,286047002.9,P
1711173735.8,286047006.1,N
1711173755.7,286047012.2,N
1711173775.5,286047016.6,N
1711173795.4,286047015.8,N
1711173815.2,286047021.3,Y
1711173835.0,286047009.4,P
1711173835.9,286047009.4,P
1711173855.8,286047013.4,P
1711173875.6,286047019.6,Y
1711173895.5,286047012.7,P
1711173915.3,286047017.2,P
1711173935.1,286047021.8,P
1711173955.9,286047024.8,Y
1711173975.7,286047009.5,P
1711173995.5,286047010.4,P
1711174015.4,286047009.4,P
1711174035.2,286047011.3,Y
1711174055.1,286047003.9,P
1711174056.0,286047003.9,N
1711174075.8,286047003.4,N
1711174095.6,286047005.1,N
1711174115.5,286047006.8,N
1711174135.3,286047006.6,N
1711174155.1,286047006.2,N
1711174175.9,286047008.2,Y
1711174195.7,286047005.0,P
1711174215.6,286047005.9,P
1711174235.4,286047004.6,P
1711174255.2,286047008.4,Y
1711174275.1,286047001.3,P
1711174276.0,286047001.3,N
1711174295.8,286047000.5,N
1711174315.7,286046996.9,N
1711174335.5,286046999.2,N
1711174355.3,286047000.8,N
1711174375.2,286046996.8,N
1711174395.9,286046996.8,N
1711174415.7,286047011.9,Y
1711174435.6,286046999.5,P
1711174455.4,286046998.0,P
1711174475.3,286046993.3,P
1711174495.1,286046994.2,N
1711174496.0,286046994.2,N
1711174515.8,286046993.3,N
1711174535.7,286046995.8,N
1711174555.5,286046994.5,N
1711174575.3,286046993.7,N
1711174595.2,286046995.4,N
1711174615.0,286046997.6,N
1711174615.9,286046997.6,N
1711174635.8,286046997.8,N
1711174655.6,286046999.1,N
1711174675.4,286046997.3,N
1711174695.3,286046996.7,N
1711174715.1,286047001.2,N
1711174735.8,286046999.7,N
1711174755.7,286047003.4,N
1711174775.5,286047004.1,N
1711174795.4,286047005.0,N
1711174815.2,286047007.0,N
1711174835.0,286047006.4,N
1711174835.9,286047006.4,N
1711174855.8,286047007.1,N
1711174875.6,286047003.7,N
1711174895.4,286047002.0,N
1711174915.3,286047002.6,N
1711174935.1,286047002.8,N
1711174955.9,286047000.9,N
1711174975.7,286046998.0,N
1711174995.5,286046991.8,N
1711175015.4,286046989.4,N
1711175035.2,286046989.5,N
1711175055.1,286046986.8,N
1711175056.0,286046986.8,N
1711175075.8,286046982.7,N
1711175095.6,286046980.0,Y
1711175115.5,286046981.0,P
1711175135.3,286046983.8,N
1711175155.1,286046988.2,N
1711175175.9,286046985.3,N
1711175195.7,286046982.5,N
1711175215.6,286046980.9,Y
1711175235.4,286046999.1,P
1711175255.2,286046998.6,N
1711175275.1,286047004.1,N
1711175276.0,286047004.1,N
1711175295.8,286047001.3,N
1711175315.6,286047001.5,N
1711175335.5,286047000.2,N
1711175355.3,286047001.2,N
1711175375.2,286047002.3,N
1711175395.9,286047007.2,N
1711175415.7,286047009.4,N
1711175435.6,286047011.2,N
1711175455.4,286047012.5,N
1711175475.2,286047014.3,N
1711175495.1,286047014.9,N
1711175496.0,286047014.9,N
1711175515.8,286047013.3,N
1711175535.7,286047012.4,N
1711175555.5,286047013.3,N
1711175575.3,286047015.8,N
1711175595.2,286047020.6,N
1711175615.0,286047022.1,N
1711175615.9,286047022.1,N
1711175635.7,286047025.4,N
1711175655.6,286047031.0,Y
1711175675.4,286047022.8,P
1711175695.3,286047026.6,P
1711175715.1,286047028.0,P
1711175716.0,286047028.0,Y
1711175735.8,286047005.2,P
1711175755.7,286047007.3,N
1711175775.5,286047007.8,N
1711175795.4,286047007.7,N
1711175815.2,286047009.8,N
1711175835.0,286047007.8,N
1711175835.9,286047007.8,N
1711175855.8,286047006.1,N
1711175875.6,286047005.4,N
1711175895.4,286047000.5,N
1711175915.3,286046999.4,N
1711175935.1,286046999.3,N
1711175955.9,286046998.4,N
1711175975.7,286046998.7,N
1711175995.5,286046997.7,N
1711176015.4,286046997.1,N
1711176035.2,286046997.1,N
1711176055.0,286046997.6,N
1711176055.9,286046997.6,N
1711176075.8,286046994.0,N
1711176095.6,286046994.3,N
1711176115.5,286046996.1,N
1711176135.3,286046997.7,N
1711176155.1,286046997.1,N
1711176175.9,286046997.2,N
1711176195.7,286047000.7,N
1711176215.5,286047000.2,N
1711176235.4,286047000.3,N
1711176255.2,286046998.2,N
1711176275.1,286046995.7,N
1711176276.0,286046995.7,N
1711176295.8,286046994.8,N
1711176315.6,286046993.8,N
1711176335.5,286046995.9,N
1711176355.3,286046998.4,N
1711176375.2,286046999.4,N
1711176395.9,286046997.9,N
1711176415.7,286046995.6,N
1711176435.6,286046989.4,Y
1711176455.4,286046992.7,P
1711176475.2,286046996.2,N
1711176495.1,286046993.9,N
1711176496.0,286046993.9,Y
1711176515.8,286046998.2,P
1711176535.7,286047001.1,N
1711176555.5,286046999.4,N
1711176575.3,286047000.6,N
1711176595.2,286047001.4,N
1711176615.0,286047001.7,N
1711176615.9,286047001.7,N
1711176635.8,286047001.3,N
1711176655.6,286047004.0,N
1711176675.4,286047003.5,N
1711176695.3,286047001.6,N
1711176715.1,286047002.6,N
1711176735.9,286047003.8,N
1711176755.7,286046998.8,N
1711176775.5,286046995.5,N
1711176795.4,286046996.0,N
1711176815.2,286046993.5,N
1711176835.0,286046995.5,N
1711176835.9,286046995.5,N
1711176855.8,286046994.4,N
1711176875.6,286046992.9,N
1711176895.5,286046988.7,Y
1711176915.3,286046989.6,P
1711176935.1,286046986.8,N
1711176955.9,286046984.0,P
1711176975.7,286046982.3,Y
1711176995.6,286046988.9,P
1711177015.4,286046987.9,P
1711177035.2,286046984.7,P
1711177055.1,286046979.9,Y
1711177056.0,286046979.9,P
1711177075.8,286046989.8,N
1711177095.7,286046987.5,N
1711177115.5,286046985.5,Y
1711177135.3,286047001.2,P
1711177155.2,286046994.0,N
1711177175.0,286046987.0,N
1711177175.9,286046987.0,N
1711177195.8,286046982.1,Y
